#timestamp,LO_Frequency,Hit,StdDev 
1562040015.4,286047002.4,N
1562040035.3,286046999.8,N
1562040055.1,286047002.2,N
1562040075.8,286047001.9,N
1562040095.7,286047002.1,N
1562040115.5,286047002.6,N
1562040135.4,286047002.6,N
1562040155.2,286047002.2,N
1562040175.0,286047004.0,Y
1562040175.9,286047004.0,P
1562040195.8,286047000.2,N
1562040215.6,286047000.3,N
1562040235.5,286047002.5,N
1562040255.3,286047002.5,N
1562040275.1,286046998.2,N
1562040295.9,286046999.0,N
1562040315.7,286046998.5,N
1562040335.5,286047001.0,N
1562040355.4,286047000.8,N
1562040375.2,286047000.7,N
1562040395.1,286047000.5,N
1562040396.0,286047000.5,N
1562040415.8,286046999.8,N
1562040435.6,286047000.0,N
1562040455.5,286047000.0,N
1562040475.3,286047002.7,N
1562040495.1,286046999.9,N
1562040515.9,286046999.8,N
1562040535.7,286047002.7,N
1562040555.6,286047002.6,N
1562040575.4,286047002.4,N
1562040595.2,286047002.1,N
1562040615.1,286047002.2,N
1562040616.0,286047002.2,N
1562040635.8,286047004.2,N
1562040655.7,286047004.2,N
1562040675.5,286047002.2,N
1562040695.3,286047001.8,N
1562040715.2,286047001.3,N
1562040735.0,286047004.3,N
1562040735.9,286047004.3,N
1562040755.8,286047001.8,N
1562040775.6,286047002.8,N
1562040795.4,286047002.8,N
1562040815.3,286047002.0,N
1562040835.1,286047000.3,N
1562040855.8,286047002.4,N
1562040875.7,286047002.1,N
1562040895.5,286047001.6,N
1562040915.4,286047002.8,N
1562040935.2,286047002.3,N
1562040955.0,286047002.4,N
1562040955.9,286047002.4,N
1562040975.8,286047001.9,N
1562040995.6,286047001.3,N
1562041015.5,286047002.0,N
1562041035.3,286047001.4,N
1562041055.1,286047004.0,Y
1562041075.9,286047000.1,P
1562041095.7,286046999.8,N
1562041115.5,286047000.9,N
1562041135.4,286047000.6,N
1562041155.2,286046998.6,N
1562041175.1,286046998.5,N
1562041176.0,286046998.5,N
1562041195.8,286047001.0,N
1562041215.6,286046998.2,N
1562041235.5,286046998.8,N
1562041255.3,286046999.0,N
1562041275.2,286046998.8,N
1562041295.9,286046999.4,N
1562041315.7,286046999.6,N
1562041335.6,286046999.2,N
1562041355.4,286046997.0,N
1562041375.2,286046997.6,N
1562041395.1,286046994.9,Y
1562041396.0,286046994.9,P
1562041415.8,286046997.0,N
1562041435.7,286046996.6,N
1562041455.5,286046999.2,N
1562041475.3,286046996.9,N
1562041495.2,286046996.9,N
1562041515.0,286046999.6,N
1562041515.9,286046999.6,N
1562041535.8,286046996.9,N
1562041555.8,286046997.3,N
1562041575.6,286046997.9,N
1562041595.5,286046997.8,N
1562041615.3,286046997.8,N
1562041635.1,286046995.1,Y
1562041655.9,286046998.9,P
1562041675.7,286046999.4,N
1562041695.6,286046999.1,N
1562041715.4,286046996.9,Y
1562041735.2,286046999.3,P
1562041755.1,286046999.5,N
1562041756.0,286046999.5,N
1562041775.8,286046997.2,Y
1562041795.7,286046997.1,P
1562041815.5,286046994.9,P
1562041835.3,286046997.2,N
1562041855.2,286046996.6,N
1562041875.0,286046997.2,N
1562041875.9,286046997.2,N
1562041895.7,286046996.8,N
1562041915.6,286046997.5,N
1562041935.4,286046997.7,N
1562041955.3,286046997.2,N
1562041975.1,286046997.6,N
1562041976.0,286046997.6,N
1562041995.8,286046995.4,Y
1562042015.7,286047001.2,P
1562042035.5,286047000.5,N
1562042055.4,286047001.1,N
1562042075.2,286047000.6,N
1562042095.4,286047001.2,N
1562042115.3,286047000.8,N
1562042135.1,286047000.2,N
1562042155.8,286047001.2,N
1562042175.7,286047001.0,N
1562042195.5,286047000.9,N
1562042215.4,286047000.7,N
1562042235.2,286047002.1,N
1562042255.0,286047002.4,N
1562042255.9,286047002.4,N
1562042275.8,286047000.2,N
1562042295.6,286047000.0,N
1562042315.4,286047000.1,N
1562042335.3,286047000.2,N
1562042355.1,286047000.2,N
1562042375.9,286046999.7,N
1562042395.7,286046999.8,N
1562042415.5,286047002.5,N
1562042435.4,286047002.2,N
1562042455.2,286047002.1,N
1562042475.1,286047002.7,N
1562042476.0,286047002.7,N
1562042495.8,286047000.3,N
1562042515.6,286046999.7,N
1562042535.5,286047002.4,N
1562042555.3,286047002.3,N
1562042575.2,286047001.9,N
1562042595.9,286047001.9,N
1562042615.7,286047002.0,N
1562042635.6,286047001.5,N
1562042655.4,286047001.3,N
1562042675.2,286047002.5,N
1562042695.1,286047002.2,N
1562042696.0,286047002.2,N
1562042715.8,286047004.3,Y
1562042735.7,286047002.1,P
1562042755.5,286047002.6,P
1562042775.3,286047002.7,P
1562042795.2,286047002.8,Y
1562042815.0,286047001.1,P
1562042815.9,286047001.1,N
1562042835.8,286047000.9,N
1562042855.6,286046999.9,N
1562042875.4,286046998.5,N
1562042895.3,286046998.6,N
1562042915.1,286046999.3,N
1562042935.8,286046998.7,N
1562042955.7,286047000.8,N
1562042975.5,286047000.7,N
1562042995.4,286046998.5,N
1562043015.2,286046998.5,N
1562043035.0,286047000.6,N
1562043035.9,286047000.6,N
1562043055.8,286046998.4,N
1562043075.6,286046998.5,N
1562043095.5,286047001.1,N
1562043115.3,286047001.1,N
1562043135.1,286046998.1,N
1562043155.9,286046998.8,N
1562043175.7,286046998.6,N
1562043195.5,286047001.2,N
1562043215.4,286047002.7,N
1562043235.2,286047000.2,N
1562043255.1,286046999.8,N
1562043256.0,286046999.8,N
1562043275.8,286047000.1,N
1562043295.6,286047002.5,N
1562043315.5,286047002.3,N
1562043335.3,286046999.7,N
1562043355.1,286047002.8,N
1562043375.9,286047002.2,N
1562043395.7,286046999.7,N
1562043415.6,286047000.0,N
1562043435.4,286047000.5,N
1562043455.3,286046999.3,N
1562043475.1,286046998.4,N
1562043476.0,286046998.4,N
1562043495.8,286046998.5,N
1562043515.7,286047000.5,N
1562043535.5,286047002.7,N
1562043555.3,286046999.7,N
1562043575.2,286046999.9,N
1562043595.0,286046999.8,N
1562043595.9,286046999.8,N
